When you browse on this site, cookies collect data to enhance your experience and personalize the content and advertising you see.
Visit our Privacy Policy to learn more. By continuing to use the site, you agree to this use of cookies and data.
  • In Schweiz
  • Länderverzeichnis
  • Für 7 Tage
  • Wassertemperatur
  • Satellitenkarten
  • Wetterkarte
  • Widgets
  • user-avatar
    Anmelden

    Stündliche Wetter Tokmak

    Heute, 18 Juni, Dienstag

    Zeit Temperatur Niederschläge Wind Luftdruck Luftfeuchtigkeit
    00:00 -2°C° 0 mm 3 m/S 481 mmHg 73%
    01:00 -2°C° 0 mm 3 m/S 481 mmHg 72%
    02:00 -2°C° 0 mm 3 m/S 480 mmHg 72%
    03:00 -2°C° 0 mm 3 m/S 480 mmHg 72%
    04:00 -2°C° 0 mm 3 m/S 480 mmHg 72%
    05:00 -2°C° 0 mm 3 m/S 481 mmHg 72%
    06:00 -1°C° 0 mm 2 m/S 482 mmHg 67%
    07:00 +2°C° 0 mm 2 m/S 483 mmHg 62%
    08:00 +5°C° 0 mm 1 m/S 484 mmHg 57%
    09:00 +5°C° 0.1 mm 1 m/S 485 mmHg 54%
    10:00 +5°C° 0.1 mm 2 m/S 485 mmHg 51%
    11:00 +6°C° 0.1 mm 2 m/S 485 mmHg 48%
    12:00 +6°C° 0.6 mm 2 m/S 485 mmHg 51%
    13:00 +5°C° 0.6 mm 3 m/S 485 mmHg 54%
    14:00 +5°C° 0.6 mm 3 m/S 485 mmHg 57%
    15:00 +4°C° 0.6 mm 3 m/S 484 mmHg 61%
    16:00 +3°C° 0.6 mm 4 m/S 484 mmHg 65%
    17:00 +3°C° 0.6 mm 4 m/S 484 mmHg 70%
    18:00 +1°C° 0.4 mm 3 m/S 483 mmHg 74%
    19:00 +1°C° 0.4 mm 2 m/S 482 mmHg 79%
    20:00 0°C° 0.4 mm 1 m/S 482 mmHg 83%
    21:00 -2°C° 0.3 mm 2 m/S 482 mmHg 83%
    22:00 -2°C° 0.3 mm 2 m/S 482 mmHg 82%
    23:00 -2°C° 0.3 mm 2 m/S 482 mmHg 81%

    Morgen, 19 Juni, Mittwoch

    Zeit Temperatur Niederschläge Wind Luftdruck Luftfeuchtigkeit
    00:00 -2°C° 0.1 mm 2 m/S 482 mmHg 79%
    01:00 -3°C° 0.1 mm 2 m/S 481 mmHg 77%
    02:00 -4°C° 0.1 mm 3 m/S 481 mmHg 76%
    03:00 -4°C° 0 mm 3 m/S 481 mmHg 75%
    04:00 -4°C° 0 mm 3 m/S 481 mmHg 74%
    05:00 -3°C° 0 mm 2 m/S 481 mmHg 73%
    06:00 -1°C° 0.2 mm 2 m/S 482 mmHg 69%
    07:00 +3°C° 0.2 mm 1 m/S 483 mmHg 65%
    08:00 +3°C° 0.2 mm 0 m/S 484 mmHg 61%
    09:00 +5°C° 0.6 mm 1 m/S 484 mmHg 58%
    10:00 +6°C° 0.6 mm 1 m/S 485 mmHg 56%
    11:00 +7°C° 0.6 mm 1 m/S 485 mmHg 53%
    12:00 +6°C° 1 mm 2 m/S 485 mmHg 54%
    13:00 +6°C° 1 mm 2 m/S 485 mmHg 56%
    14:00 +5°C° 1 mm 3 m/S 484 mmHg 57%
    15:00 +4°C° 0.8 mm 3 m/S 484 mmHg 61%
    16:00 +4°C° 0.8 mm 3 m/S 484 mmHg 64%
    17:00 +3°C° 0.8 mm 3 m/S 484 mmHg 67%
    18:00 +3°C° 0.4 mm 2 m/S 483 mmHg 75%
    19:00 +1°C° 0.4 mm 2 m/S 483 mmHg 83%
    20:00 +1°C° 0.4 mm 1 m/S 482 mmHg 91%
    21:00 +1°C° 0.6 mm 1 m/S 482 mmHg 91%
    22:00 0°C° 0.6 mm 1 m/S 482 mmHg 92%
    23:00 0°C° 0.6 mm 1 m/S 482 mmHg 92%

    übermorgen, 20 Juni, Donnerstag

    Zeit Temperatur Niederschläge Wind Luftdruck Luftfeuchtigkeit
    00:00 -2°C° 0.1 mm 2 m/S 482 mmHg 89%
    01:00 -3°C° 0.1 mm 2 m/S 481 mmHg 86%
    02:00 -4°C° 0.1 mm 3 m/S 481 mmHg 83%
    03:00 -4°C° 0 mm 3 m/S 481 mmHg 80%
    04:00 -3°C° 0 mm 2 m/S 481 mmHg 77%
    05:00 -3°C° 0 mm 2 m/S 481 mmHg 74%
    06:00 -1°C° 0 mm 2 m/S 482 mmHg 69%
    07:00 +3°C° 0 mm 1 m/S 484 mmHg 64%
    08:00 +5°C° 0 mm 1 m/S 485 mmHg 59%
    09:00 +6°C° 0.2 mm 1 m/S 485 mmHg 58%
    10:00 +6°C° 0.2 mm 1 m/S 486 mmHg 56%
    11:00 +6°C° 0.2 mm 2 m/S 486 mmHg 55%
    12:00 +6°C° 0.8 mm 2 m/S 486 mmHg 57%
    13:00 +6°C° 0.8 mm 2 m/S 486 mmHg 59%
    14:00 +6°C° 0.8 mm 2 m/S 485 mmHg 61%
    15:00 +6°C° 0.7 mm 2 m/S 485 mmHg 63%
    16:00 +6°C° 0.7 mm 2 m/S 485 mmHg 64%
    17:00 +4°C° 0.7 mm 3 m/S 485 mmHg 66%
    18:00 +4°C° 0.2 mm 2 m/S 484 mmHg 68%
    19:00 +3°C° 0.2 mm 2 m/S 484 mmHg 71%
    20:00 +3°C° 0.2 mm 1 m/S 483 mmHg 74%
    21:00 +2°C° 0 mm 1 m/S 483 mmHg 73%
    22:00 +2°C° 0 mm 1 m/S 483 mmHg 72%
    23:00 -1°C° 0 mm 2 m/S 483 mmHg 71%

    21 Juni, Freitag

    Zeit Temperatur Niederschläge Wind Luftdruck Luftfeuchtigkeit
    00:00 -1°C° 0 mm 2 m/S 483 mmHg 70%
    01:00 -1°C° 0 mm 3 m/S 482 mmHg 70%
    02:00 -1°C° 0 mm 3 m/S 482 mmHg 69%
    03:00 -1°C° 0 mm 3 m/S 482 mmHg 70%
    04:00 -1°C° 0 mm 3 m/S 482 mmHg 70%
    05:00 -1°C° 0 mm 2 m/S 482 mmHg 70%
    06:00 +2°C° 0 mm 2 m/S 484 mmHg 65%
    07:00 +5°C° 0 mm 1 m/S 485 mmHg 60%
    08:00 +7°C° 0 mm 1 m/S 486 mmHg 55%
    09:00 +7°C° 0.4 mm 1 m/S 487 mmHg 53%
    10:00 +8°C° 0.4 mm 1 m/S 487 mmHg 51%
    11:00 +9°C° 0.4 mm 1 m/S 487 mmHg 50%
    12:00 +9°C° 0.9 mm 1 m/S 487 mmHg 50%
    13:00 +8°C° 0.9 mm 2 m/S 487 mmHg 50%
    14:00 +9°C° 0.9 mm 2 m/S 487 mmHg 51%
    15:00 +8°C° 0.9 mm 2 m/S 486 mmHg 52%
    16:00 +8°C° 0.9 mm 2 m/S 486 mmHg 54%
    17:00 +8°C° 0.9 mm 2 m/S 486 mmHg 56%
    18:00 +6°C° 0.4 mm 2 m/S 485 mmHg 62%
    19:00 +5°C° 0.4 mm 2 m/S 484 mmHg 68%
    20:00 +3°C° 0.4 mm 2 m/S 483 mmHg 74%
    21:00 +2°C° 0.1 mm 2 m/S 483 mmHg 73%
    22:00 +2°C° 0.1 mm 2 m/S 483 mmHg 73%
    23:00 0°C° 0.1 mm 3 m/S 482 mmHg 72%

    22 Juni, Samstag

    Zeit Temperatur Niederschläge Wind Luftdruck Luftfeuchtigkeit
    00:00 0°C° 0 mm 3 m/S 482 mmHg 71%
    01:00 0°C° 0 mm 3 m/S 482 mmHg 71%
    02:00 -1°C° 0 mm 4 m/S 482 mmHg 71%
    03:00 -1°C° 0 mm 4 m/S 482 mmHg 70%
    04:00 -1°C° 0 mm 4 m/S 482 mmHg 69%
    05:00 -1°C° 0 mm 4 m/S 482 mmHg 68%
    06:00 +2°C° 0.1 mm 3 m/S 483 mmHg 65%
    07:00 +4°C° 0.1 mm 2 m/S 484 mmHg 62%
    08:00 +6°C° 0.1 mm 1 m/S 485 mmHg 59%
    09:00 +4°C° 0.7 mm 2 m/S 485 mmHg 61%
    10:00 +4°C° 0.7 mm 2 m/S 484 mmHg 64%
    11:00 +2°C° 0.7 mm 3 m/S 484 mmHg 66%
    12:00 +3°C° 0.3 mm 3 m/S 484 mmHg 67%
    13:00 +3°C° 0.3 mm 3 m/S 485 mmHg 67%
    14:00 +4°C° 0.3 mm 3 m/S 485 mmHg 68%
    15:00 +3°C° 0.5 mm 3 m/S 485 mmHg 70%
    16:00 +3°C° 0.5 mm 2 m/S 484 mmHg 71%
    17:00 +3°C° 0.5 mm 2 m/S 484 mmHg 73%
    18:00 +2°C° 0.1 mm 2 m/S 484 mmHg 71%
    19:00 +3°C° 0.1 mm 1 m/S 484 mmHg 69%
    20:00 +2°C° 0.1 mm 1 m/S 484 mmHg 67%
    21:00 +2°C° 0 mm 1 m/S 484 mmHg 69%
    22:00 -1°C° 0 mm 2 m/S 483 mmHg 71%
    23:00 -2°C° 0 mm 2 m/S 483 mmHg 73%

    23 Juni, Sonntag

    Zeit Temperatur Niederschläge Wind Luftdruck Luftfeuchtigkeit
    00:00 -2°C° 0 mm 2 m/S 483 mmHg 70%
    01:00 0°C° 0 mm 1 m/S 483 mmHg 68%
    02:00 0°C° 0 mm 1 m/S 482 mmHg 65%
    03:00 0°C° 0 mm 1 m/S 483 mmHg 67%
    04:00 0°C° 0 mm 1 m/S 483 mmHg 68%
    05:00 0°C° 0 mm 1 m/S 483 mmHg 70%
    06:00 +1°C° 0.1 mm 1 m/S 484 mmHg 67%
    07:00 +3°C° 0.1 mm 1 m/S 485 mmHg 64%
    08:00 +3°C° 0.1 mm 2 m/S 486 mmHg 62%
    09:00 +4°C° 0.4 mm 2 m/S 487 mmHg 60%
    10:00 +4°C° 0.4 mm 2 m/S 487 mmHg 58%
    11:00 +4°C° 0.4 mm 3 m/S 487 mmHg 56%
    12:00 +4°C° 0.7 mm 3 m/S 487 mmHg 57%
    13:00 +4°C° 0.7 mm 3 m/S 487 mmHg 58%
    14:00 +4°C° 0.7 mm 3 m/S 487 mmHg 59%
    15:00 +4°C° 0.5 mm 3 m/S 487 mmHg 61%
    16:00 +5°C° 0.5 mm 2 m/S 487 mmHg 62%
    17:00 +4°C° 0.5 mm 2 m/S 486 mmHg 64%
    18:00 +3°C° 0.2 mm 2 m/S 485 mmHg 68%
    19:00 +2°C° 0.2 mm 1 m/S 484 mmHg 72%
    20:00 +1°C° 0.2 mm 1 m/S 483 mmHg 76%
    21:00 +1°C° 0 mm 1 m/S 483 mmHg 75%
    22:00 0°C° 0 mm 1 m/S 483 mmHg 73%
    23:00 0°C° 0 mm 1 m/S 482 mmHg 72%
    Mehr zeigen